FW6349 Weather Reports


time (UTC)temp
F
wind
direction
speed
knots
gust
knots
rain 1hr
in
rain 24hr
in
rain mn
in
humidity
%
barometer
mb
20230128005559 14 293 4.3 7.8 0.00 0.00 0.00 69 1012.2
20230128004517 14 293 3.5 10.4 0.00 0.00 0.00 69 1011.9
20230128003517 15 293 4.3 7.8 0.00 0.00 0.00 69 1011.9
20230128002517 15 293 2.6 6.1 0.00 0.00 0.00 68 1011.7
20230128001517 15 293 3.5 7.8 0.00 0.00 0.00 68 1011.4
20230128000517 15 293 5.2 9.6 0.00 0.00 0.00 68 1011.2
20230127235517 16 293 4.3 10.4 0.00 0.00 0.00 67 1010.9
20230127234517 16 293 6.1 11.3 0.00 0.00 0.00 68 1010.6
20230127233517 16 293 3.5 10.4 0.00 0.00 0.00 67 1010.1
20230127232518 17 293 5.2 9.6 0.00 0.00 0.00 66 1009.7
20230127231517 17 315 7.0 14.8 0.00 0.00 0.00 66 1009.4
20230127230517 18 293 3.5 7.8 0.00 0.00 0.00 66 1009.1
20230127225518 19 293 6.1 10.4 0.00 0.00 0.00 65 1008.8
20230127224522 19 293 3.5 7.0 0.00 0.00 0.00 65 1008.5
20230127223516 19 293 5.2 11.3 0.00 0.00 0.00 64 1008.3
20230127222516 19 315 3.5 7.8 0.00 0.00 0.00 64 1008.2
20230127221517 20 293 5.2 11.3 0.00 0.00 0.00 64 1008.0
20230127220521 20 315 4.3 7.8 0.00 0.00 0.00 63 1007.7
20230127215537 21 315 6.1 12.2 0.00 0.00 0.00 62 1007.6
20230127214542 22 315 6.1 12.2 0.00 0.00 0.00 62 1007.2
20230127213518 22 338 4.3 9.6 0.00 0.00 0.00 64 1007.1
20230127212517 21 315 4.3 13.0 0.00 0.00 0.00 64 1007.0
20230127211517 21 315 6.1 12.2 0.00 0.00 0.00 64 1006.8
20230127210538 21 315 6.1 13.0 0.00 0.00 0.00 64 1006.6
20230127205517 22 293 5.2 11.3 0.00 0.00 0.00 66 1006.4
20230127204517 22 338 7.0 13.0 0.00 0.00 0.00 66 1006.2
20230127203518 22 315 6.1 13.0 0.00 0.00 0.00 66 1006.0
20230127202516 22 338 7.0 13.0 0.00 0.00 0.00 67 1006.0
20230127201517 22 293 7.0 13.9 0.00 0.00 0.00 68 1005.8
20230127200516 22 293 7.8 15.6 0.00 0.00 0.00 69 1005.7
20230127195517 23 315 7.0 15.6 0.00 0.00 0.00 69 1005.4
20230127194516 23 293 8.7 16.5 0.00 0.00 0.00 70 1005.4
20230127193516 23 293 7.8 15.6 0.00 0.00 0.00 70 1005.3
20230127192516 23 293 7.8 14.8 0.00 0.00 0.00 71 1005.0
20230127191521 23 293 7.8 14.8 0.00 0.00 0.00 71 1004.8
20230127190517 23 293 8.7 15.6 0.00 0.00 0.00 71 1004.8
20230127185516 23 315 7.8 13.9 0.00 0.00 0.00 72 1004.5
20230127184541 23 293 6.1 14.8 0.00 0.00 0.00 73 1004.3
20230127183536 23 315 7.0 16.5 0.00 0.00 0.00 73 1004.2
20230127182516 23 293 7.8 13.9 0.00 0.00 0.00 74 1004.0
20230127181517 23 315 6.1 13.9 0.00 0.00 0.00 74 1004.1
20230127180516 23 293 8.7 15.6 0.00 0.00 0.00 74 1004.0
20230127175516 23 315 7.8 15.6 0.00 0.00 0.00 74 1003.7
20230127174521 24 315 7.0 14.8 0.00 0.00 0.00 75 1003.4
20230127173516 23 293 7.0 16.5 0.00 0.00 0.00 78 1003.3
20230127172516 23 315 8.7 20.0 0.00 0.00 0.00 78 1003.2
20230127171518 23 293 7.0 12.2 0.00 0.00 0.00 80 1003.0
20230127170516 23 293 7.8 15.6 0.00 0.00 0.00 81 1002.9
20230127165516 23 293 7.8 16.5 0.00 0.00 0.00 81 1002.8
20230127164516 23 293 8.7 16.5 0.00 0.00 0.00 82 1002.5
20230127163516 23 293 9.6 19.1 0.00 0.00 0.00 82 1002.5
20230127162536 24 315 8.7 17.4 0.00 0.00 0.00 82 1002.3
20230127161516 24 293 5.2 11.3 0.00 0.00 0.00 84 1001.8
20230127160516 24 315 8.7 16.5 0.00 0.00 0.00 83 1001.6
20230127155516 25 338 7.0 11.3 0.00 0.00 0.00 83 1001.4
20230127154516 26 293 5.2 12.2 0.00 0.00 0.00 85 1001.0
20230127153516 26 293 7.0 12.2 0.00 0.00 0.00 85 1000.6
20230127152536 26 315 5.2 13.0 0.00 0.00 0.00 84 1000.4
20230127151516 26 338 8.7 14.8 0.00 0.00 0.00 84 1000.2
20230127150522 28 315 6.1 16.5 0.00 0.00 0.00 86 999.8
20230127145516 28 315 7.0 13.9 0.00 0.00 0.00 86 999.4
20230127144521 29 293 10.4 22.6 0.00 0.00 0.00 88 999.1
20230127143516 30 293 7.0 15.6 0.00 0.00 0.00 90 998.7
20230127142516 30 315 6.1 12.2 0.00 0.00 0.00 91 998.5
20230127141516 31 315 6.1 15.6 0.00 0.00 0.00 92 998.1
20230127140516 32 315 7.8 17.4 0.00 0.00 0.00 94 997.8
20230127135516 32 315 6.1 13.9 0.00 0.00 0.00 95 997.5
20230127134535 32 293 5.2 12.2 0.00 0.00 0.00 96 997.1
20230127133521 31 293 1.7 6.1 0.00 0.00 0.00 96 996.8
20230127132516 31 293 2.6 7.0 0.00 0.00 0.00 96 996.7
20230127131536 30 293 1.7 6.1 0.00 0.00 0.00 95 996.6
20230127130515 30 293 0.9 6.1 0.00 0.00 0.00 95 996.4
20230127125515 29 270 0.9 3.5 0.00 0.00 0.00 95 996.3
20230127124516 29 225 0.9 3.5 0.00 0.00 0.00 95 996.1
20230127123516 29 203 0.9 2.6 0.00 0.00 0.00 95 995.9
20230127122515 29 203 1.7 4.3 0.00 0.00 0.00 95 995.8
20230127121537 28 203 2.6 6.1 0.00 0.00 0.00 95 995.7
20230127120516 28 203 2.6 7.0 0.00 0.00 0.00 95 995.7
20230127115541 28 180 3.5 7.0 0.00 0.00 0.00 94 995.5
20230127114516 28 180 3.5 9.6 0.00 0.00 0.00 94 995.4
20230127113515 27 180 4.3 7.0 0.00 0.00 0.00 94 995.5
20230127112515 27 180 3.5 7.0 0.00 0.00 0.00 94 995.5
20230127111516 27 158 4.3 7.8 0.00 0.00 0.00 94 995.7
20230127110535 27 158 4.3 8.7 0.00 0.00 0.00 94 995.6
20230127105516 26 158 4.3 8.7 0.00 0.00 0.00 94 995.9
20230127104520 26 180 5.2 7.8 0.00 0.00 0.00 94 995.9
20230127103515 25 158 5.2 7.8 0.00 0.00 0.00 93 995.9
20230127102515 25 158 4.3 7.0 0.00 0.00 0.00 93 996.1
20230127101516 25 158 5.2 9.6 0.00 0.00 0.00 93 996.2
20230127100516 25 180 5.2 8.7 0.00 0.00 0.00 93 996.2
20230127095536 25 158 4.3 9.6 0.00 0.00 0.00 93 996.4
20230127094515 24 180 6.1 13.0 0.00 0.00 0.00 93 996.6
20230127093515 24 180 7.0 13.0 0.00 0.00 0.00 93 996.8
20230127092535 24 158 7.0 10.4 0.00 0.00 0.00 92 997.0
20230127091515 23 158 6.1 10.4 0.00 0.00 0.00 93 997.2
20230127090536 22 158 7.0 11.3 0.00 0.00 0.00 92 997.5
20230127085516 22 158 7.0 12.2 0.00 0.00 0.00 92 997.7
20230127084515 22 158 6.1 10.4 0.00 0.00 0.00 92 997.9
20230127083520 21 158 7.0 10.4 0.00 0.00 0.00 92 998.2
20230127082517 20 158 5.2 7.8 0.00 0.00 0.00 92 998.5
20230127081517 20 158 7.8 12.2 0.00 0.00 0.00 92 998.6
20230127080517 19 158 5.2 13.0 0.00 0.00 0.00 91 998.9
20230127075522 19 158 6.1 11.3 0.00 0.00 0.00 91 999.2
20230127074517 18 158 6.1 11.3 0.00 0.00 0.00 91 999.5
20230127073517 18 158 6.1 13.9 0.00 0.00 0.00 91 999.8
20230127072517 18 158 7.0 13.0 0.00 0.00 0.00 91 1000.0
20230127071519 17 158 6.1 12.2 0.00 0.00 0.00 90 1000.2
20230127070517 17 158 7.8 14.8 0.00 0.00 0.00 90 1000.4
20230127065537 17 158 7.0 11.3 0.00 0.00 0.00 90 1000.6
20230127064522 16 158 8.7 14.8 0.00 0.00 0.00 90 1000.8
20230127063537 16 158 7.8 15.6 0.00 0.00 0.00 90 1001.2
20230127062517 16 158 7.8 15.6 0.00 0.00 0.00 88 1001.6
20230127061517 16 158 8.7 13.9 0.00 0.00 0.00 88 1002.0
20230127060517 16 158 7.8 15.6 0.00 0.00 0.00 88 1002.2
20230127055536 15 158 7.0 12.2 0.00 0.00 0.00 87 1002.6
20230127054515 15 158 7.8 13.9 0.00 0.00 0.00 86 1002.8
20230127053521 15 158 7.0 11.3 0.00 0.00 0.00 86 1003.2
20230127052516 15 158 6.1 10.4 0.00 0.00 0.00 85 1003.6
20230127051516 15 158 7.8 14.8 0.00 0.00 0.00 84 1003.9
20230127050515 15 158 6.1 12.2 0.00 0.00 0.00 84 1004.2
20230127045516 15 158 7.0 11.3 0.00 0.00 0.00 83 1004.5
20230127044516 15 158 5.2 10.4 0.00 0.00 0.00 83 1004.9
20230127043515 15 158 6.1 11.3 0.00 0.00 0.00 83 1005.6
20230127042515 15 158 5.2 11.3 0.00 0.00 0.00 83 1006.0
20230127041516 15 158 5.2 8.7 0.00 0.00 0.00 82 1006.3
20230127040556 14 158 6.1 12.2 0.00 0.00 0.00 82 1006.5
20230127035600 14 158 7.0 12.2 0.00 0.00 0.00 82 1006.9
20230127034535 14 158 7.0 13.0 0.00 0.00 0.00 82 1007.0
20230127033515 14 158 8.7 17.4 0.00 0.00 0.00 82 1007.5
20230127032517 14 180 7.8 13.9 0.00 0.00 0.00 82 1007.7
20230127031515 14 158 7.0 12.2 0.00 0.00 0.00 83 1007.9
20230127030517 14 158 5.2 11.3 0.00 0.00 0.00 83 1008.3
20230127025515 14 158 5.2 8.7 0.00 0.00 0.00 83 1008.5
20230127024520 14 158 5.2 10.4 0.00 0.00 0.00 83 1008.5
20230127023515 14 158 6.1 12.2 0.00 0.00 0.00 83 1008.7
20230127022535 13 158 6.1 12.2 0.00 0.00 0.00 83 1008.9
20230127021515 13 158 6.1 12.2 0.00 0.00 0.00 82 1009.4
20230127020515 13 158 6.1 11.3 0.00 0.00 0.00 82 1009.6
20230127015515 13 158 7.0 11.3 0.00 0.00 0.00 81 1009.8
20230127014515 13 158 5.2 11.3 0.00 0.00 0.00 81 1010.0
20230127013535 13 158 7.0 12.2 0.00 0.00 0.00 81 1010.5
20230127012517 13 180 6.1 13.0 0.00 0.00 0.00 80 1010.9
20230127011517 13 158 5.2 10.4 0.00 0.00 0.00 79 1011.1
20230127010537 13 180 5.2 11.3 0.00 0.00 0.00 77 1011.5